Weather History for KLXV - September, 2012

Change the Weather History Date:

Tuesday, September 11, 2012

  Actual Average Record
Temperature  
Mean Temperature 54 °F -  
Max Temperature 63 °F 62 °F 71 °F (1990)
Min Temperature 44 °F 32 °F 22 °F (2010)
Degree Days  
Heating Degree Days 11 18  
Month to date heating degree days 153 181  
Since 1 July heating degree days 723 903  
Cooling Degree Days 0 0  
Month to date cooling degree days 0 0  
Year to date cooling degree days 0 0  
Growing Degree Days 3 (Base 50)    
Moisture  
Dew Point 37 °F    
Average Humidity 67    
Maximum Humidity 100    
Minimum Humidity 34    
Precipitation  
Precipitation 0.30 in 0.04 in 0.30 in (2012)
Month to date precipitation 0.52 0.47  
Year to date precipitation 8.97 9.42  
Snow  
Snow 0.00 in - - ()
Month to date snowfall 0.0  
Snow Depth 0.00 in    
Sea Level Pressure  
Sea Level Pressure 29.89 in    
Wind  
Wind Speed 4 mph (North)    
Max Wind Speed 18 mph    
Max Gust Speed 25 mph    
Visibility 10 miles    
Events Rain    
T = Trace of Precipitation, MM = Missing Value Source: NWS Daily Summary

Daily Weather History Graph

Daily Weather History Graph

Search for Another Location

Airport or City:

Trip Planner

Search our weather history database for the weather conditions in past years. The results will help you decide how hot, cold, wet, or windy it might be!

Date:

Astronomy

Sep. 11, 2012 Rise Set
Actual Time 6:43 AM MDT 7:19 PM MDT
Civil Twilight 6:16 AM MDT 7:46 PM MDT
Nautical Twilight 5:44 AM MDT 8:17 PM MDT
Astronomical Twilight 5:11 AM MDT 8:50 PM MDT
Moon 2:04 AM MDT (9/11) 4:30 PM MDT (9/11)
Length of Visible Light 13h 29m
Length of Day
12h 35m
Waning Crescent, 21% of the Moon is Illuminated
Sep 11
Waning Crescent
Sep 15
New
Sep 22
First Quarter
Sep 29
Full
Oct 8
Last Quarter

Hourly Weather History & Observations

Time (MDT) Temp. Windchill Dew Point Humidity Pressure Visibility Wind Dir Wind Speed Gust Speed Precip Events Conditions
12:53 AM 46.9 °F - 30.0 °F 52% 29.86 in 10.0 mi NE 6.9 mph - N/A   Overcast
1:53 AM 50.0 °F - 28.9 °F 44% 29.82 in 10.0 mi NE 3.5 mph - N/A   Overcast
2:53 AM 48.9 °F - 28.9 °F 46% 29.82 in 10.0 mi NE 4.6 mph - N/A   Overcast
3:53 AM 48.0 °F - 30.9 °F 52% 29.83 in 10.0 mi SW 3.5 mph - N/A   Overcast
4:53 AM 46.9 °F - 30.9 °F 54% 29.83 in 10.0 mi Calm Calm - N/A   Overcast
5:53 AM 48.0 °F - 30.9 °F 52% 29.82 in 10.0 mi Calm Calm - N/A   Overcast
6:53 AM 46.0 °F - 30.9 °F 56% 29.86 in 10.0 mi Calm Calm - N/A   Mostly Cloudy
7:53 AM 50.0 °F - 34.0 °F 54% 29.87 in 10.0 mi Calm Calm - N/A   Scattered Clouds
8:53 AM 54.0 °F - 35.1 °F 49% 29.88 in 10.0 mi NNW 6.9 mph - N/A   Overcast
9:53 AM 57.0 °F - 36.0 °F 45% 29.88 in 10.0 mi North 4.6 mph - N/A   Overcast
10:53 AM 59.0 °F - 35.1 °F 41% 29.88 in 10.0 mi Variable 4.6 mph - N/A   Overcast
11:53 AM 59.0 °F - 34.0 °F 39% 29.85 in 10.0 mi Calm Calm - N/A   Overcast
12:53 PM 60.1 °F - 35.1 °F 39% 29.83 in 10.0 mi SW 12.7 mph 25.3 mph N/A   Overcast
1:53 PM 62.1 °F - 33.1 °F 34% 29.79 in 7.0 mi South 15.0 mph 24.2 mph 0.00 in   Mostly Cloudy
2:53 PM 61.0 °F - 34.0 °F 36% 29.78 in 10.0 mi SSW 8.1 mph - N/A   Overcast
3:53 PM 59.0 °F - 36.0 °F 42% 29.79 in 10.0 mi NNW 6.9 mph 16.1 mph N/A   Overcast
4:53 PM 52.0 °F - 42.1 °F 69% 29.88 in 10.0 mi NNE 8.1 mph - 0.00 in Rain Light Rain
5:53 PM 51.1 °F - 42.1 °F 71% 29.88 in 10.0 mi Calm Calm - 0.00 in Rain Light Rain
6:53 PM 51.1 °F - 43.0 °F 74% 29.89 in 10.0 mi NNW 3.5 mph - 0.00 in   Mostly Cloudy
7:53 PM 48.9 °F - 43.0 °F 80% 29.89 in 10.0 mi NNW 8.1 mph - 0.00 in Rain Light Rain
8:53 PM 46.0 °F 43.9 °F 45.0 °F 96% 29.91 in 5.0 mi NE 4.6 mph - 0.05 in Rain Rain
9:53 PM 45.0 °F 42.6 °F 44.1 °F 97% 29.92 in 5.0 mi SE 4.6 mph - 0.15 in Rain Rain
10:53 PM 45.0 °F - 43.0 °F 93% 29.90 in 10.0 mi Calm Calm - 0.09 in Rain Light Rain
11:22 PM 44.6 °F - 44.6 °F 100% 30.36 in 10.0 mi Calm Calm - 0.01 in Rain Light Rain
11:31 PM 44.6 °F 43.1 °F 42.8 °F 93% 30.36 in 10.0 mi NNW 3.5 mph - 0.01 in Rain Light Rain
11:53 PM 44.1 °F 42.5 °F 43.0 °F 96% 29.89 in 10.0 mi NNW 3.5 mph - 0.01 in   Overcast